Regional Weather Roundup
Issued by NWS

Home | Current Version | Previous Version | Text Only | Print | Product List | Glossary Off
Versions: 1 2 3 4 5 6 7 8 9 10 11 12 13 14 15 16 17 18 19 20 21 22 23 24 25 26 27

000
ASUS45 KBOI 220210
RWRID

IDAHO REGIONAL WEATHER ROUNDUP
NATIONAL WEATHER SERVICE BOISE ID
800 PM MDT SAT APR 21 2018

NOTE: "FAIR" INDICATES FEW OR NO CLOUDS BELOW 12000 FEET
WITH NO SIGNIFICANT WEATHER AND/OR OBSTRUCTIONS TO VISIBILITY

IDZ012-014-220300-
SOUTHWEST IDAHO


CITY           SKY/WX    TMP DP  RH WIND       PRES   REMARKS
BOISE          CLEAR     67  32  27 N7        30.09F
CALDWELL       CLEAR     66  36  32 NW9       30.10S
MOUNTAIN HOME  CLEAR     67  33  28 N9        30.08S
$$

IDZ016-017-220300-
SOUTHCENTRAL IDAHO


CITY           SKY/WX    TMP DP  RH WIND       PRES   REMARKS
BURLEY         CLEAR     62  33  33 W10       30.10S
JEROME         CLEAR     63  32  31 W14       30.11F
TWIN FALLS     CLEAR     62  34  35 W12       30.12S
$$

IDZ019>023-220300-
SOUTHEAST IDAHO


CITY           SKY/WX    TMP DP  RH WIND       PRES   REMARKS
IDAHO FALLS    CLEAR     63  33  32 SW17      30.07S
POCATELLO      CLEAR     63  32  31 SW18      30.10S
REXBURG        CLEAR     63  30  28 S9        30.06S
$$

IDZ006-010-011-018-031-032-220300-
CENTRAL IDAHO MOUNTAINS


CITY           SKY/WX    TMP DP  RH WIND       PRES   REMARKS
MCCALL         CLEAR     54  29  38 W6        30.14F
HAILEY         CLEAR     61  27  27 W7        30.12S
STANLEY          N/A     52  23  32 SW6       30.17F
SALMON         CLEAR     63  23  21 W10       30.03R
CHALLIS        CLEAR     62  21  20 W7        30.08R
$$

IDZ002-004-006-007-026-220300-
NORTHERN IDAHO


CITY           SKY/WX    TMP DP  RH WIND       PRES   REMARKS
LEWISTON       MOCLDY    58  23  26 NW14G23   30.22R
LOWELL           N/A     52  38  58 N3        30.21R
COEUR D`ALENE  CLOUDY    51  20  29 W15       30.21R
MULLAN PASS    CLOUDY    34  18  52 VRB7      30.17S WCI  28
$$




USA.gov is the U.S. government's official web portal to all federal, state and local government web resources and services.